Simultaneous Nadir Overpasses (SNOs) Predictions

Prediction of SNOs between METOP-B and TERRA Satellite Orbit:

Table of predicted SNOs for the next 14.0 days since TLE Epoch: 11/10/2012
Index Date (METOP-B) Time (METOP-B) METOP-B Lat,Lon Date (TERRA) Time (TERRA) TERRA Lat,Lon Distance(km) Time Diff (sec)
1 11/12/2012 10:03:03 81.26, 75.50 11/12/2012 10:04:13 81.27, 75.65 2.73 70
2 11/12/2012 10:53:43 -81.27,-116.74 11/12/2012 10:53:40 -81.26,-116.80 1.15 3
3 11/15/2012 05:37:29 81.26, 141.82 11/15/2012 05:38:28 81.25, 141.85 0.87 59
4 11/15/2012 06:28:09 -81.27, -50.36 11/15/2012 06:27:54 -81.27, -50.20 2.68 15
5 11/18/2012 01:11:54 81.26,-151.46 11/18/2012 01:12:42 81.26,-151.53 1.33 48
6 11/18/2012 02:02:35 -81.27, 16.04 11/18/2012 02:02:09 -81.26, 16.05 0.74 26
7 11/20/2012 20:46:20 81.26, -85.09 11/20/2012 20:46:57 81.25, -85.26 3.04 37
8 11/20/2012 21:37:00 -81.27, 82.85 11/20/2012 21:36:23 -81.27, 82.72 2.14 37
9 11/23/2012 16:20:45 81.26, -18.71 11/23/2012 16:21:10 81.27, -18.58 2.28 25




NCC Satellite Simultaneous Nadir Overpasses (SNOs) Prediction Service
